Time,TemperatureF,DewpointF,PressureIn,WindDirection,WindDirectionDegrees,WindSpeedMPH,WindSpeedGustMPH,Humidity,HourlyPrecipIn,Conditions,Clouds,dailyrainin,SoftwareType,DateUTC
2013-04-05 00:03:00,42.0,-99.9,30.07,West,259,15.0,-999.0,-999,-99.99,,,-99.99,,2013-04-05 04:03:00,
2013-04-05 00:13:00,42.0,-99.9,30.07,West,259,15.0,-999.0,-999,-99.99,,,-99.99,,2013-04-05 04:13:00,
2013-04-05 00:23:00,42.0,-99.9,30.07,SW,235,13.0,-999.0,-999,-99.99,,,-99.99,,2013-04-05 04:23:00,
2013-04-05 00:33:00,42.0,-99.9,30.07,SW,235,13.0,-999.0,-999,-99.99,,,-99.99,,2013-04-05 04:33:00,
2013-04-05 00:43:00,42.0,-99.9,30.07,SW,235,13.0,-999.0,-999,-99.99,,,-99.99,,2013-04-05 04:43:00,
2013-04-05 00:53:00,42.0,-99.9,30.06,West,266,15.0,-999.0,-999,-99.99,,,-99.99,,2013-04-05 04:53:00,
2013-04-05 01:02:00,42.0,-99.9,30.06,West,266,15.0,-999.0,-999,-99.99,,,-99.99,,2013-04-05 05:02:00,
2013-04-05 01:13:00,42.0,-99.9,30.06,West,266,15.0,-999.0,-999,-99.99,,,-99.99,,2013-04-05 05:13:00,
2013-04-05 01:22:00,42.0,-99.9,30.05,WSW,248,17.0,-999.0,-999,-99.99,,,-99.99,,2013-04-05 05:22:00,
2013-04-05 01:32:00,42.0,-99.9,30.05,WSW,248,17.0,-999.0,-999,-99.99,,,-99.99,,2013-04-05 05:32:00,
2013-04-05 01:42:00,42.0,-99.9,30.03,West,264,20.0,-999.0,-999,-99.99,,,-99.99,,2013-04-05 05:42:00,
2013-04-05 01:53:00,42.0,-99.9,30.03,West,264,20.0,-999.0,-999,-99.99,,,-99.99,,2013-04-05 05:53:00,
2013-04-05 02:03:00,42.0,-99.9,30.03,West,264,20.0,-999.0,-999,-99.99,,,-99.99,,2013-04-05 06:03:00,
2013-04-05 02:12:00,42.0,-99.9,30.03,West,264,20.0,-999.0,-999,-99.99,,,-99.99,,2013-04-05 06:12:00,
2013-04-05 02:22:00,43.0,-99.9,30.03,WSW,256,15.0,-999.0,-999,-99.99,,,-99.99,,2013-04-05 06:22:00,
2013-04-05 02:32:00,43.0,-99.9,30.03,WSW,256,15.0,-999.0,-999,-99.99,,,-99.99,,2013-04-05 06:32:00,
2013-04-05 02:42:00,43.0,-99.9,30.01,West,266,10.0,-999.0,-999,-99.99,,,-99.99,,2013-04-05 06:42:00,
2013-04-05 02:52:00,43.0,-99.9,30.01,West,266,10.0,-999.0,-999,-99.99,,,-99.99,,2013-04-05 06:52:00,
2013-04-05 03:03:00,43.0,-99.9,30.01,West,266,10.0,-999.0,-999,-99.99,,,-99.99,,2013-04-05 07:03:00,
2013-04-05 03:12:00,43.0,-99.9,30.01,West,266,10.0,-999.0,-999,-99.99,,,-99.99,,2013-04-05 07:12:00,
2013-04-05 03:23:00,43.0,-99.9,29.99,West,275,17.0,-999.0,-999,-99.99,,,-99.99,,2013-04-05 07:23:00,
2013-04-05 03:32:00,43.0,-99.9,29.99,West,275,17.0,-999.0,-999,-99.99,,,-99.99,,2013-04-05 07:32:00,
2013-04-05 03:42:00,43.0,-99.9,29.99,West,275,17.0,-999.0,-999,-99.99,,,-99.99,,2013-04-05 07:42:00,
2013-04-05 03:53:00,43.0,-99.9,29.98,WSW,258,11.0,-999.0,-999,-99.99,,,-99.99,,2013-04-05 07:53:00,
2013-04-05 04:03:00,43.0,-99.9,29.98,WSW,258,11.0,-999.0,-999,-99.99,,,-99.99,,2013-04-05 08:03:00,
2013-04-05 04:13:00,43.0,-99.9,29.98,WSW,258,11.0,-999.0,-999,-99.99,,,-99.99,,2013-04-05 08:13:00,
2013-04-05 04:23:00,43.0,-99.9,29.97,West,259,14.0,-999.0,-999,-99.99,,,-99.99,,2013-04-05 08:23:00,
2013-04-05 04:33:00,43.0,-99.9,29.97,West,259,14.0,-999.0,-999,-99.99,,,-99.99,,2013-04-05 08:33:00,
2013-04-05 04:43:00,43.0,-99.9,29.97,West,259,14.0,-999.0,-999,-99.99,,,-99.99,,2013-04-05 08:43:00,
2013-04-05 04:52:00,43.0,-99.9,29.97,WSW,241,10.0,-999.0,-999,-99.99,,,-99.99,,2013-04-05 08:52:00,
2013-04-05 05:02:00,43.0,-99.9,29.97,WSW,241,10.0,-999.0,-999,-99.99,,,-99.99,,2013-04-05 09:02:00,
2013-04-05 05:13:00,43.0,-99.9,29.97,WSW,241,10.0,-999.0,-999,-99.99,,,-99.99,,2013-04-05 09:13:00,
2013-04-05 05:22:00,43.0,-99.9,29.96,West,262,12.0,-999.0,-999,-99.99,,,-99.99,,2013-04-05 09:22:00,
2013-04-05 05:33:00,43.0,-99.9,29.96,West,262,12.0,-999.0,-999,-99.99,,,-99.99,,2013-04-05 09:33:00,
2013-04-05 05:43:00,43.0,-99.9,29.96,West,262,12.0,-999.0,-999,-99.99,,,-99.99,,2013-04-05 09:43:00,
2013-04-05 05:53:00,44.0,-99.9,29.94,West,261,10.0,-999.0,-999,-99.99,,,-99.99,,2013-04-05 09:53:00,
2013-04-05 06:03:00,44.0,-99.9,29.94,West,261,10.0,-999.0,-999,-99.99,,,-99.99,,2013-04-05 10:03:00,
2013-04-05 06:13:00,44.0,-99.9,29.94,West,261,10.0,-999.0,-999,-99.99,,,-99.99,,2013-04-05 10:13:00,
2013-04-05 06:23:00,44.0,-99.9,29.93,West,259,10.0,-999.0,-999,-99.99,,,-99.99,,2013-04-05 10:23:00,
2013-04-05 06:33:00,44.0,-99.9,29.93,West,259,10.0,-999.0,-999,-99.99,,,-99.99,,2013-04-05 10:33:00,
2013-04-05 06:43:00,44.0,-99.9,29.93,West,259,10.0,-999.0,-999,-99.99,,,-99.99,,2013-04-05 10:43:00,
2013-04-05 06:54:00,44.0,-99.9,29.93,West,261,12.0,-999.0,-999,-99.99,,,-99.99,,2013-04-05 10:54:00,
2013-04-05 07:03:00,44.0,-99.9,29.93,West,261,12.0,-999.0,-999,-99.99,,,-99.99,,2013-04-05 11:03:00,
2013-04-05 07:13:00,44.0,-99.9,29.93,West,261,12.0,-999.0,-999,-99.99,,,-99.99,,2013-04-05 11:13:00,
2013-04-05 07:23:00,44.0,-99.9,29.93,West,260,9.0,-999.0,-999,-99.99,,,-99.99,,2013-04-05 11:23:00,
2013-04-05 07:33:00,44.0,-99.9,29.93,West,260,9.0,-999.0,-999,-99.99,,,-99.99,,2013-04-05 11:33:00,
2013-04-05 07:42:00,44.0,-99.9,29.93,WSW,239,11.0,-999.0,-999,-99.99,,,-99.99,,2013-04-05 11:42:00,
2013-04-05 07:52:00,44.0,-99.9,29.93,WSW,239,11.0,-999.0,-999,-99.99,,,-99.99,,2013-04-05 11:52:00,
2013-04-05 08:02:00,44.0,-99.9,29.93,WSW,239,11.0,-999.0,-999,-99.99,,,-99.99,,2013-04-05 12:02:00,
2013-04-05 08:12:00,44.0,-99.9,29.93,WSW,239,11.0,-999.0,-999,-99.99,,,-99.99,,2013-04-05 12:12:00,
2013-04-05 08:22:00,44.0,-99.9,29.92,WSW,245,10.0,-999.0,-999,-99.99,,,-99.99,,2013-04-05 12:22:00,
2013-04-05 08:32:00,44.0,-99.9,29.92,WSW,245,10.0,-999.0,-999,-99.99,,,-99.99,,2013-04-05 12:32:00,
2013-04-05 08:42:00,44.0,-99.9,29.89,West,264,8.0,-999.0,-999,-99.99,,,-99.99,,2013-04-05 12:42:00,
2013-04-05 08:53:00,44.0,-99.9,29.89,West,264,8.0,-999.0,-999,-99.99,,,-99.99,,2013-04-05 12:53:00,
2013-04-05 09:02:00,44.0,-99.9,29.89,West,264,8.0,-999.0,-999,-99.99,,,-99.99,,2013-04-05 13:02:00,
2013-04-05 09:12:00,44.0,-99.9,29.89,West,264,8.0,-999.0,-999,-99.99,,,-99.99,,2013-04-05 13:12:00,
2013-04-05 09:23:00,44.0,-99.9,29.89,WSW,248,5.0,-999.0,-999,-99.99,,,-99.99,,2013-04-05 13:23:00,
2013-04-05 09:32:00,44.0,-99.9,29.89,WSW,248,5.0,-999.0,-999,-99.99,,,-99.99,,2013-04-05 13:32:00,
2013-04-05 09:43:00,44.0,-99.9,29.88,West,262,9.0,-999.0,-999,-99.99,,,-99.99,,2013-04-05 13:43:00,
2013-04-05 09:53:00,44.0,-99.9,29.88,West,262,9.0,-999.0,-999,-99.99,,,-99.99,,2013-04-05 13:53:00,
2013-04-05 10:03:00,44.0,-99.9,29.88,West,262,9.0,-999.0,-999,-99.99,,,-99.99,,2013-04-05 14:03:00,
2013-04-05 10:12:00,44.0,-99.9,29.88,West,262,9.0,-999.0,-999,-99.99,,,-99.99,,2013-04-05 14:12:00,
2013-04-05 10:23:00,44.0,-99.9,29.87,WSW,258,5.0,-999.0,-999,-99.99,,,-99.99,,2013-04-05 14:23:00,
2013-04-05 10:37:00,44.0,-99.9,29.87,WSW,258,5.0,-999.0,-999,-99.99,,,-99.99,,2013-04-05 14:37:00,
2013-04-05 10:43:00,44.0,-99.9,29.87,WSW,258,5.0,-999.0,-999,-99.99,,,-99.99,,2013-04-05 14:43:00,
2013-04-05 10:55:00,44.0,-99.9,29.84,WNW,282,5.0,-999.0,-999,-99.99,,,-99.99,,2013-04-05 14:55:00,
2013-04-05 11:02:00,44.0,-99.9,29.84,WNW,282,5.0,-999.0,-999,-99.99,,,-99.99,,2013-04-05 15:02:00,
2013-04-05 11:13:00,44.0,-99.9,29.84,WNW,282,5.0,-999.0,-999,-99.99,,,-99.99,,2013-04-05 15:13:00,
2013-04-05 11:34:00,44.0,-99.9,29.83,SW,234,5.0,-999.0,-999,-99.99,,,-99.99,,2013-04-05 15:34:00,
2013-04-05 11:43:00,44.0,-99.9,29.83,SW,234,5.0,-999.0,-999,-99.99,,,-99.99,,2013-04-05 15:43:00,
2013-04-05 11:55:00,44.0,-99.9,29.83,SW,233,5.0,-999.0,-999,-99.99,,,-99.99,,2013-04-05 15:55:00,
2013-04-05 12:03:00,44.0,-99.9,29.83,SW,233,5.0,-999.0,-999,-99.99,,,-99.99,,2013-04-05 16:03:00,
2013-04-05 12:15:00,44.0,-99.9,29.83,SW,233,5.0,-999.0,-999,-99.99,,,-99.99,,2013-04-05 16:15:00,
2013-04-05 12:23:00,44.0,-99.9,29.80,SW,221,4.0,-999.0,-999,-99.99,,,-99.99,,2013-04-05 16:23:00,
2013-04-05 12:33:00,44.0,-99.9,29.80,SW,221,4.0,-999.0,-999,-99.99,,,-99.99,,2013-04-05 16:33:00,
2013-04-05 12:43:00,44.0,-99.9,29.80,SW,221,4.0,-999.0,-999,-99.99,,,-99.99,,2013-04-05 16:43:00,
2013-04-05 12:53:00,44.0,-99.9,29.77,South,189,6.0,-999.0,-999,-99.99,,,-99.99,,2013-04-05 16:53:00,
2013-04-05 13:04:00,44.0,-99.9,29.77,South,189,6.0,-999.0,-999,-99.99,,,-99.99,,2013-04-05 17:04:00,
2013-04-05 13:13:00,44.0,-99.9,29.77,South,189,6.0,-999.0,-999,-99.99,,,-99.99,,2013-04-05 17:13:00,
2013-04-05 13:33:00,47.0,-99.9,29.74,South,172,6.0,-999.0,-999,-99.99,,,-99.99,,2013-04-05 17:33:00,
2013-04-05 13:46:00,47.0,-99.9,29.74,South,172,6.0,-999.0,-999,-99.99,,,-99.99,,2013-04-05 17:46:00,
2013-04-05 13:53:00,46.0,-99.9,29.71,South,188,4.0,-999.0,-999,-99.99,,,-99.99,,2013-04-05 17:53:00,
2013-04-05 14:03:00,46.0,-99.9,29.71,South,188,4.0,-999.0,-999,-99.99,,,-99.99,,2013-04-05 18:03:00,
2013-04-05 14:13:00,46.0,-99.9,29.71,South,188,4.0,-999.0,-999,-99.99,,,-99.99,,2013-04-05 18:13:00,
2013-04-05 14:23:00,45.0,-99.9,29.70,SSW,205,7.0,-999.0,-999,-99.99,,,-99.99,,2013-04-05 18:23:00,
2013-04-05 14:35:00,45.0,-99.9,29.70,SSW,205,7.0,-999.0,-999,-99.99,,,-99.99,,2013-04-05 18:35:00,
2013-04-05 14:43:00,45.0,-99.9,29.70,SSW,205,7.0,-999.0,-999,-99.99,,,-99.99,,2013-04-05 18:43:00,
2013-04-05 14:53:00,45.0,-99.9,29.66,SSW,205,8.0,-999.0,-999,-99.99,,,-99.99,,2013-04-05 18:53:00,
2013-04-05 15:03:00,45.0,-99.9,29.66,SSW,205,8.0,-999.0,-999,-99.99,,,-99.99,,2013-04-05 19:03:00,
2013-04-05 15:14:00,45.0,-99.9,29.66,SSW,205,8.0,-999.0,-999,-99.99,,,-99.99,,2013-04-05 19:14:00,
2013-04-05 15:23:00,44.0,-99.9,29.64,SSW,208,7.0,-999.0,-999,-99.99,,,-99.99,,2013-04-05 19:23:00,
2013-04-05 15:34:00,44.0,-99.9,29.64,SSW,208,7.0,-999.0,-999,-99.99,,,-99.99,,2013-04-05 19:34:00,
2013-04-05 15:43:00,44.0,-99.9,29.63,SSW,199,12.0,-999.0,-999,-99.99,,,-99.99,,2013-04-05 19:43:00,
2013-04-05 15:53:00,44.0,-99.9,29.63,SSW,199,12.0,-999.0,-999,-99.99,,,-99.99,,2013-04-05 19:53:00,
2013-04-05 16:03:00,44.0,-99.9,29.63,SSW,199,12.0,-999.0,-999,-99.99,,,-99.99,,2013-04-05 20:03:00,
2013-04-05 16:11:00,44.0,-99.9,29.63,SSW,199,12.0,-999.0,-999,-99.99,,,-99.99,,2013-04-05 20:11:00,
2013-04-05 16:23:00,45.0,-99.9,29.61,SSW,203,11.0,-999.0,-999,-99.99,,,-99.99,,2013-04-05 20:23:00,
2013-04-05 16:33:00,45.0,-99.9,29.61,SSW,203,11.0,-999.0,-999,-99.99,,,-99.99,,2013-04-05 20:33:00,
2013-04-05 16:43:00,45.0,-99.9,29.61,SSW,203,11.0,-999.0,-999,-99.99,,,-99.99,,2013-04-05 20:43:00,
2013-04-05 16:53:00,46.0,-99.9,29.62,SSW,203,9.0,-999.0,-999,-99.99,,,-99.99,,2013-04-05 20:53:00,
2013-04-05 17:03:00,46.0,-99.9,29.62,SSW,203,9.0,-999.0,-999,-99.99,,,-99.99,,2013-04-05 21:03:00,
2013-04-05 17:13:00,46.0,-99.9,29.62,SSW,203,9.0,-999.0,-999,-99.99,,,-99.99,,2013-04-05 21:13:00,
2013-04-05 17:24:00,47.0,-99.9,29.61,SSW,200,11.0,-999.0,-999,-99.99,,,-99.99,,2013-04-05 21:24:00,
2013-04-05 17:35:00,47.0,-99.9,29.61,SSW,200,11.0,-999.0,-999,-99.99,,,-99.99,,2013-04-05 21:35:00,
2013-04-05 17:44:00,47.0,-99.9,29.62,SSW,213,10.0,-999.0,-999,-99.99,,,-99.99,,2013-04-05 21:44:00,
2013-04-05 18:04:00,47.0,-99.9,29.62,SSW,213,10.0,-999.0,-999,-99.99,,,-99.99,,2013-04-05 22:04:00,
2013-04-05 18:13:00,47.0,-99.9,29.62,SSW,213,10.0,-999.0,-999,-99.99,,,-99.99,,2013-04-05 22:13:00,
2013-04-05 18:23:00,48.0,-99.9,29.62,SW,223,9.0,-999.0,-999,-99.99,,,-99.99,,2013-04-05 22:23:00,
2013-04-05 18:34:00,48.0,-99.9,29.62,SW,223,9.0,-999.0,-999,-99.99,,,-99.99,,2013-04-05 22:34:00,
2013-04-05 18:44:00,48.0,-99.9,29.62,SW,223,9.0,-999.0,-999,-99.99,,,-99.99,,2013-04-05 22:44:00,
2013-04-05 18:53:00,49.0,-99.9,29.64,West,268,16.0,-999.0,-999,-99.99,,,-99.99,,2013-04-05 22:53:00,
2013-04-05 19:03:00,49.0,-99.9,29.64,West,268,16.0,-999.0,-999,-99.99,,,-99.99,,2013-04-05 23:03:00,
2013-04-05 19:13:00,49.0,-99.9,29.64,West,268,16.0,-999.0,-999,-99.99,,,-99.99,,2013-04-05 23:13:00,
2013-04-05 19:23:00,48.0,-99.9,29.66,West,274,6.0,-999.0,-999,-99.99,,,-99.99,,2013-04-05 23:23:00,
2013-04-05 19:33:00,48.0,-99.9,29.66,West,274,6.0,-999.0,-999,-99.99,,,-99.99,,2013-04-05 23:33:00,
2013-04-05 19:43:00,49.0,-99.9,29.66,West,276,7.0,-999.0,-999,-99.99,,,-99.99,,2013-04-05 23:43:00,
2013-04-05 19:53:00,49.0,-99.9,29.66,West,276,7.0,-999.0,-999,-99.99,,,-99.99,,2013-04-05 23:53:00,
2013-04-05 20:03:00,49.0,-99.9,29.66,West,276,7.0,-999.0,-999,-99.99,,,-99.99,,2013-04-06 00:03:00,
2013-04-05 20:13:00,49.0,-99.9,29.66,West,276,7.0,-999.0,-999,-99.99,,,-99.99,,2013-04-06 00:13:00,
2013-04-05 20:23:00,48.0,-99.9,29.69,WNW,302,8.0,-999.0,-999,-99.99,,,-99.99,,2013-04-06 00:23:00,
2013-04-05 20:33:00,48.0,-99.9,29.69,WNW,302,8.0,-999.0,-999,-99.99,,,-99.99,,2013-04-06 00:33:00,
2013-04-05 20:43:00,47.0,-99.9,29.71,WNW,289,8.0,-999.0,-999,-99.99,,,-99.99,,2013-04-06 00:43:00,
2013-04-05 20:53:00,47.0,-99.9,29.71,WNW,289,8.0,-999.0,-999,-99.99,,,-99.99,,2013-04-06 00:53:00,
2013-04-05 21:02:00,47.0,-99.9,29.71,WNW,289,8.0,-999.0,-999,-99.99,,,-99.99,,2013-04-06 01:02:00,
2013-04-05 21:13:00,47.0,-99.9,29.71,WNW,289,8.0,-999.0,-999,-99.99,,,-99.99,,2013-04-06 01:13:00,
2013-04-05 21:23:00,48.0,-99.9,29.72,NNW,327,9.0,-999.0,-999,-99.99,,,-99.99,,2013-04-06 01:23:00,
2013-04-05 21:33:00,48.0,-99.9,29.72,NNW,327,9.0,-999.0,-999,-99.99,,,-99.99,,2013-04-06 01:33:00,
2013-04-05 21:44:00,52.0,-99.9,29.73,NNW,331,15.0,-999.0,-999,-99.99,,,-99.99,,2013-04-06 01:44:00,
2013-04-05 21:53:00,52.0,-99.9,29.73,NNW,331,15.0,-999.0,-999,-99.99,,,-99.99,,2013-04-06 01:53:00,
2013-04-05 22:03:00,52.0,-99.9,29.73,NNW,331,15.0,-999.0,-999,-99.99,,,-99.99,,2013-04-06 02:03:00,
2013-04-05 22:13:00,52.0,-99.9,29.73,NNW,331,15.0,-999.0,-999,-99.99,,,-99.99,,2013-04-06 02:13:00,
2013-04-05 22:23:00,52.0,-99.9,29.75,NNW,341,23.0,-999.0,-999,-99.99,,,-99.99,,2013-04-06 02:23:00,
2013-04-05 22:33:00,52.0,-99.9,29.75,NNW,341,23.0,-999.0,-999,-99.99,,,-99.99,,2013-04-06 02:33:00,
2013-04-05 22:43:00,52.0,-99.9,29.75,NNW,341,23.0,-999.0,-999,-99.99,,,-99.99,,2013-04-06 02:43:00,
2013-04-05 22:53:00,51.0,-99.9,29.77,NNW,342,21.0,-999.0,-999,-99.99,,,-99.99,,2013-04-06 02:53:00,
2013-04-05 23:13:00,51.0,-99.9,29.77,NNW,342,21.0,-999.0,-999,-99.99,,,-99.99,,2013-04-06 03:13:00,
2013-04-05 23:23:00,50.0,-99.9,29.79,NNW,332,21.0,-999.0,-999,-99.99,,,-99.99,,2013-04-06 03:23:00,
2013-04-05 23:34:00,50.0,-99.9,29.79,NNW,332,21.0,-999.0,-999,-99.99,,,-99.99,,2013-04-06 03:34:00,
2013-04-05 23:44:00,50.0,-99.9,29.79,NNW,332,21.0,-999.0,-999,-99.99,,,-99.99,,2013-04-06 03:44:00,
2013-04-05 23:55:00,48.0,-99.9,29.80,NNW,342,13.0,-999.0,-999,-99.99,,,-99.99,,2013-04-06 03:55:00,